Home > Weather > Pullman > Past weeks

Flag for USA Past Weather in Pullman, Washington, USA — Yesterday and Last 2 Weeks

Now
59 °F

Clear.


Feels Like: 59 °F
Forecast: 61 / 91 °F
Wind: No wind

Location: Pullman / Moscow Regional Airport

Current Time: Jul 27, 2016 at 2:47:07 AM

Latest Report: Jul 27, 2016 at 1:53 AM


Visibility: 10 mi

Pressure: 29.97 "Hg (27.54 "Hg at 715m altitude)

Humidity: 69%

Dew Point: 49 °F

Location of PullmanLocation

Past Weather in Pullman — Graph

°F

Pullman Temperature Yesterday

Maximum temperature yesterday: 90 °F (at 5:53 PM)
Minimum temperature yesterday: 53 °F (at 4:53 AM)
Average temperature yesterday: 74 °F

High & Low Weather Summary for the Past Weeks

 TemperatureHumidityPressure
High92 °F (Jul 21, 3:53 PM)90% (Jul 14, 12:53 AM)30.21 "Hg (Jul 14, 12:53 AM)
Low45 °F (Jul 14, 4:53 AM)18% (Jul 21, 3:53 PM)29.85 "Hg (Jul 17, 7:53 PM)
Average66 °F54%30.03 "Hg
* Reported Jul 12 12:53 AM — Jul 27 12:53 AM, Pullman, Weather by CustomWeather, © 2016

Note: Actual official high and low records may vary slightly from our data, if they occured in-between our weather recording intervals... More about our weather records

Advertising

Pullman Weather History for the Previous 24 Hours

Scroll right to see more
 ConditionsComfort  
Time TempWeatherWind HumidityBarometerVisibility
12:53 AM
Wed, Jul 27
61 °FClear.No wind67%29.98 "Hg10 mi
11:53 PM
Tue, Jul 26
65 °FClear.No wind61%29.98 "Hg10 mi
10:53 PM68 °FClear.No wind53%29.98 "Hg10 mi
9:53 PM72 °FPassing clouds.No wind49%29.97 "Hg10 mi
8:53 PM81 °FPartly sunny.6 mph34%29.95 "Hg10 mi
7:53 PM84 °FSunny.6 mph32%29.94 "Hg10 mi
6:53 PM87 °FSunny.5 mph31%29.94 "Hg10 mi
5:53 PM90 °FSunny.8 mph26%29.94 "Hg10 mi
4:53 PM89 °FSunny.No wind26%29.95 "Hg10 mi
3:53 PM89 °FSunny.No wind26%29.97 "Hg10 mi
2:53 PM89 °FSunny.6 mph28%29.99 "Hg10 mi
1:53 PM87 °FSunny.7 mph32%30.01 "Hg10 mi
12:53 PM86 °FSunny.7 mph33%30.02 "Hg10 mi
11:53 AM83 °FSunny.7 mph38%30.03 "Hg10 mi
10:53 AM80 °FSunny.8 mph42%30.03 "Hg10 mi
9:53 AM78 °FSunny.9 mph46%30.03 "Hg10 mi
8:53 AM74 °FSunny.8 mph56%30.03 "Hg10 mi
7:53 AM70 °FSunny.3 mph59%30.01 "Hg10 mi
6:53 AM62 °FSunny.No wind62%30.01 "Hg10 mi
5:53 AM54 °FClear.No wind77%30.00 "Hg10 mi
4:53 AM53 °FClear.No wind77%29.99 "Hg10 mi
3:53 AM54 °FClear.No wind74%29.98 "Hg10 mi
2:53 AM56 °FClear.No wind72%29.96 "Hg10 mi
Weather by CustomWeather, © 2016

See weather overviewHow to use our weather pages